Location: The Saddle
(36.8333°N, 80.3417°W)
Time: 19:40:37
(UTC-05:00)

Vanguard 1 - All Passes

Search period start: 22 January 2022 00:00
Search period end: 01 February 2022 00:00
Orbit: 652 x 3830 km, 34.2° (Epoch: 22 January)

Date Brightness Start Highest point End Pass type
(mag) Time Alt. Az. Time Alt. Az. Time Alt. Az.
22 Jan - 08:27:04 10° S 08:33:18 17° SSE 08:37:56 10° ESE daylight
22 Jan - 10:47:04 10° SW 10:54:23 40° SSE 10:59:08 10° E daylight
22 Jan - 13:09:06 10° W 13:14:23 66° S 13:18:45 10° E daylight
22 Jan - 15:29:55 10° W 15:34:03 39° SSW 15:38:53 10° SE daylight
22 Jan - 17:51:46 10° SW 17:54:10 13° SSW 17:56:58 10° S daylight
23 Jan - 08:46:20 10° SSW 08:54:25 24° SSE 08:59:49 10° ESE daylight
23 Jan - 11:07:54 10° WSW 11:15:17 50° SSE 11:20:03 10° E daylight
23 Jan - 13:30:07 10° W 13:35:14 64° S 13:39:36 10° ESE daylight
23 Jan - 15:51:00 10° W 15:54:51 29° SSW 15:59:24 10° SE daylight
24 Jan - 06:49:56 10° SSE 06:53:18 11° SSE 06:56:17 10° SE visible
24 Jan - 09:06:20 10° SW 09:15:29 31° SSE 09:21:12 10° E daylight
24 Jan - 11:28:55 10° WSW 11:36:10 60° S 11:40:54 10° E daylight
24 Jan - 13:51:09 10° W 13:56:02 57° S 14:00:25 10° ESE daylight
24 Jan - 16:12:17 10° WSW 16:15:39 20° SSW 16:19:33 10° SSE daylight
25 Jan - 07:06:43 10° S 07:14:35 17° SSE 07:20:22 10° ESE visible
25 Jan - 09:26:47 10° SW 09:36:31 40° SSE 09:42:18 10° E daylight
25 Jan - 11:50:03 10° WSW 11:57:02 66° S 12:01:42 10° E daylight
25 Jan - 14:12:11 10° W 14:16:50 47° SSW 14:21:08 10° ESE daylight
25 Jan - 16:34:09 10° WSW 16:36:27 13° SSW 16:39:01 10° S daylight
26 Jan - 07:25:35 10° SSW 07:35:48 24° SSE 07:42:35 10° ESE daylight
26 Jan - 09:47:35 10° SW 09:57:30 49° SSE 10:03:15 10° E daylight
26 Jan - 12:11:13 10° W 12:17:55 69° S 12:22:30 10° E daylight
26 Jan - 14:33:17 10° W 14:37:35 35° SSW 14:41:44 10° SE daylight
27 Jan - 05:30:57 10° SSE 05:33:53 11° SSE 05:36:35 10° SE visible
27 Jan - 07:45:17 10° SSW 07:56:58 31° SSE 08:04:08 10° E daylight
27 Jan - 10:08:37 10° WSW 10:18:27 58° SSE 10:24:06 10° E daylight
27 Jan - 12:32:24 10° W 12:38:47 66° S 12:43:17 10° ESE daylight
27 Jan - 14:54:29 10° W 14:58:18 25° SSW 15:02:04 10° SSE daylight
28 Jan - 05:46:09 10° S 05:55:14 17° SSE 06:02:08 10° ESE visible
28 Jan - 08:05:33 10° SW 08:18:06 39° SSE 08:25:20 10° E daylight
28 Jan - 10:29:49 10° WSW 10:39:24 66° S 10:44:55 10° E daylight
28 Jan - 12:53:34 10° W 12:59:36 58° SSW 13:04:01 10° ESE daylight
28 Jan - 15:16:01 10° WSW 15:18:59 17° SSW 15:21:58 10° SSE daylight
29 Jan - 06:04:25 10° SSW 06:16:32 23° SSE 06:24:49 10° ESE visible
29 Jan - 08:26:12 10° SW 08:39:11 48° SSE 08:46:22 10° E daylight
29 Jan - 10:51:07 10° WSW 11:00:20 71° S 11:05:42 10° E daylight
29 Jan - 13:14:44 10° W 13:20:23 47° SSW 13:24:40 10° SE daylight
29 Jan - 15:38:53 10° SW 15:39:39 10° SSW 15:40:25 10° SSW daylight
30 Jan - 06:23:43 10° SSW 06:37:46 30° SSE 06:46:39 10° E visible
30 Jan - 08:47:11 10° WSW 09:00:14 57° SSE 09:07:16 10° E daylight
30 Jan - 11:12:27 10° W 11:21:15 73° S 11:26:28 10° E daylight
30 Jan - 13:35:58 10° W 13:41:05 35° SSW 13:45:09 10° SE daylight
31 Jan - 04:26:05 10° S 04:35:16 15° SE 04:42:42 10° ESE visible
31 Jan - 06:43:40 10° SW 06:58:59 38° SSE 07:08:04 10° E visible
31 Jan - 09:08:23 10° WSW 09:21:15 65° SSE 09:28:07 10° E daylight
31 Jan - 11:33:47 10° W 11:42:09 69° S 11:47:13 10° ESE daylight
31 Jan - 13:57:19 10° W 14:01:42 25° SSW 14:05:22 10° SSE daylight
